CW9561 Weather Reports


time (UTC)temp
C
wind
direction
speed
KPH
gust
KPH
rain 1hr
cm
rain 24hr
cm
rain mn
cm
humidity
%
barometer
mb
20260508095022 3 242 0.0 0.0 0.00 0.00 0.00 69 1018.6
20260508094040 3 242 0.0 0.0 0.00 0.00 0.00 69 1018.7
20260508093032 3 241 0.0 0.0 0.00 0.00 0.00 69 1018.8
20260508092029 4 241 0.0 0.0 0.00 0.00 0.00 68 1018.9
20260508091027 5 241 0.0 0.0 0.00 0.00 0.00 66 1019.0
20260508090029 5 241 0.0 0.0 0.00 0.00 0.00 67 1019.0
20260508085020 5 241 0.0 0.0 0.00 0.00 0.00 66 1019.0
20260508084034 5 241 0.0 0.0 0.00 0.00 0.00 67 1019.0
20260508083029 5 241 0.0 0.0 0.00 0.00 0.00 66 1019.0
20260508082021 5 241 0.0 0.0 0.00 0.00 0.00 67 1019.0
20260508081020 5 241 0.0 0.0 0.00 0.00 0.00 69 1019.0
20260508080032 4 237 0.0 0.0 0.00 0.00 0.00 71 1019.2
20260508074021 4 261 0.0 0.0 0.00 0.00 0.00 72 1018.7
20260508072033 3 269 1.6 0.0 0.00 0.00 0.00 72 1019.2
20260508071029 3 269 3.2 0.0 0.00 0.00 0.00 72 1019.2
20260508070027 3 269 1.6 0.0 0.00 0.00 0.00 71 1019.3
20260508065020 3 269 0.0 0.0 0.00 0.00 0.00 71 1019.3
20260508063028 3 269 0.0 0.0 0.00 0.00 0.00 72 1019.4
20260508062026 3 269 0.0 0.0 0.00 0.00 0.00 72 1019.3
20260508061021 3 269 0.0 0.0 0.00 0.00 0.00 72 1019.3
20260508060037 3 269 0.0 0.0 0.00 0.00 0.00 72 1019.2
20260508055028 4 269 0.0 0.0 0.00 0.00 0.10 71 1019.4
20260508054024 4 269 0.0 0.0 0.00 0.00 0.10 71 1019.4
20260508053023 4 269 1.6 0.0 0.00 0.00 0.10 71 1019.6
20260508052038 4 269 0.0 0.0 0.00 0.00 0.10 71 1019.0
20260508051032 4 269 0.0 0.0 0.00 0.00 0.10 72 1019.1
20260508050027 3 250 0.0 0.0 0.00 0.00 0.10 73 1019.2
20260508045023 4 250 0.0 0.0 0.00 0.00 0.10 72 1019.0
20260508044037 4 250 0.0 0.0 0.00 0.00 0.10 72 1018.9
20260508043035 5 250 1.6 0.0 0.00 0.00 0.10 71 1018.8
20260508042032 5 232 0.0 0.0 0.00 0.00 0.10 70 1018.9
20260508041027 5 232 1.6 0.0 0.00 0.00 0.10 68 1018.8
20260508040024 5 199 0.0 0.0 0.00 0.00 0.10 67 1018.8
20260508035037 5 286 1.6 0.0 0.00 0.00 0.10 66 1018.9
20260508034032 6 294 0.0 0.0 0.00 0.00 0.10 66 1018.9
20260508033024 6 294 0.0 0.0 0.00 0.00 0.10 65 1018.8
20260508032023 6 199 1.6 0.0 0.00 0.00 0.10 65 1018.6
20260508031036 6 237 0.0 0.0 0.00 0.00 0.10 65 1018.4
20260508030031 6 205 0.0 0.0 0.00 0.00 0.10 65 1018.5
20260508025023 6 233 0.0 0.0 0.00 0.00 0.10 65 1018.4
20260508024038 6 233 0.0 0.0 0.00 0.00 0.10 64 1018.5
20260508023034 6 235 0.0 0.0 0.00 0.00 0.10 63 1018.3
20260508022033 6 235 0.0 0.0 0.00 0.00 0.10 64 1018.4
20260508020040 7 235 0.0 0.0 0.00 0.00 0.10 62 1018.3
20260508015034 7 234 0.0 0.0 0.00 0.00 0.10 60 1018.4
20260508014031 8 234 0.0 0.0 0.00 0.00 0.10 60 1017.5
20260508013026 7 235 0.0 0.0 0.00 0.00 0.10 63 1017.3
20260508012023 7 232 0.0 0.0 0.00 0.00 0.10 63 1017.4
20260508005032 7 208 0.0 0.0 0.00 0.00 0.10 77 1017.6
20260508004029 6 208 0.0 0.0 0.00 0.00 0.10 79 1017.6
20260508003023 6 306 0.0 0.0 0.00 0.00 0.10 80 1017.8
20260508002039 6 302 0.0 0.0 0.00 0.00 0.08 79 1018.2
20260508001033 6 329 0.0 0.0 0.00 0.00 0.08 81 1018.0
20260508000027 6 306 1.6 0.0 0.00 0.00 0.08 78 1018.0
20260507235041 6 280 1.6 0.0 0.00 0.00 0.05 75 1018.1
20260507233030 7 290 1.6 0.0 0.00 0.00 0.03 70 1018.3
20260507232024 9 290 1.6 0.0 0.00 0.00 0.03 62 1018.3
20260507231036 11 254 0.0 0.0 0.00 0.00 0.00 49 1018.2
20260507225033 12 253 3.2 0.0 0.00 0.00 0.00 45 1017.3
20260507224027 12 273 1.6 0.0 0.00 0.00 0.00 46 1017.7
20260507223038 11 298 1.6 0.0 0.00 0.00 0.00 49 1017.8
20260507222031 11 222 0.0 0.0 0.00 0.00 0.00 50 1017.9
20260507221027 12 333 1.6 0.0 0.00 0.00 0.00 46 1018.1
20260507220038 12 277 1.6 0.0 0.00 0.00 0.00 47 1018.3
20260507215033 11 219 1.6 0.0 0.00 0.00 0.00 51 1018.5
20260507212027 11 247 0.0 0.0 0.00 0.00 0.00 50 1019.0
20260507211021 10 259 1.6 0.0 0.00 0.00 0.00 52 1019.3
20260507210034 10 155 1.6 0.0 0.00 0.00 0.00 51 1018.7
20260507205029 10 211 1.6 0.0 0.00 0.00 0.00 50 1018.9
20260507203022 10 306 0.0 0.0 0.00 0.00 0.00 51 1019.5
20260507202039 10 245 1.6 0.0 0.00 0.00 0.00 51 1019.6
20260507201030 10 226 1.6 0.0 0.00 0.00 0.00 54 1019.7
20260507200022 10 219 0.0 0.0 0.00 0.00 0.00 55 1019.9
20260507194038 9 344 1.6 0.0 0.00 0.00 0.00 54 1020.2
20260507193032 10 33 1.6 0.0 0.00 0.00 0.00 50 1019.6
20260507192028 9 280 1.6 0.0 0.00 0.00 0.00 52 1019.9
20260507191020 9 200 1.6 0.0 0.00 0.00 0.00 47 1020.1
20260507190033 8 294 1.6 0.0 0.00 0.00 0.00 50 1020.3
20260507185031 8 271 3.2 0.0 0.00 0.00 0.00 48 1020.5
20260507184029 10 20 1.6 0.0 0.00 0.00 0.00 49 1020.5
20260507183021 10 146 3.2 0.0 0.00 0.00 0.00 50 1020.7
20260507182038 10 298 1.6 0.0 0.00 0.00 0.00 46 1020.8
20260507181030 9 245 1.6 0.0 0.00 0.00 0.00 50 1020.3
20260507175027 9 270 3.2 0.0 0.00 0.00 0.00 50 1020.5
20260507174026 8 202 3.2 0.0 0.00 0.00 0.00 47 1020.6
20260507172037 8 244 6.4 0.0 0.00 0.00 0.00 50 1020.8
20260507170030 7 209 4.8 0.0 0.00 0.00 0.00 54 1020.8
20260507164021 5 128 4.8 0.0 0.00 0.00 0.00 54 1021.1
20260507163033 5 210 3.2 0.0 0.00 0.00 0.00 55 1021.3
20260507162034 3 321 1.6 0.0 0.00 0.00 0.00 62 1021.6
20260507161028 2 94 4.8 0.0 0.00 0.00 0.00 63 1021.7
20260507160022 2 86 3.2 0.0 0.00 0.00 0.00 65 1021.9
20260507155036 1 14 3.2 0.0 0.00 0.00 0.00 63 1022.1
20260507153027 1 18 1.6 0.0 0.00 0.00 0.00 68 1021.3
20260507152021 0 360 4.8 0.0 0.00 0.00 0.00 70 1021.5
20260507151032 0 345 3.2 0.0 0.00 0.00 0.00 72 1021.7
20260507150024 -1 346 3.2 0.0 0.00 0.00 0.00 72 1021.9
20260507145019 0 360 1.6 0.0 0.00 0.00 0.00 72 1021.9
20260507144019 0 337 1.6 0.0 0.00 0.00 0.00 70 1022.0
20260507143035 0 58 1.6 0.0 0.00 0.00 0.00 70 1022.3
20260507142030 0 58 1.6 0.0 0.00 0.00 0.00 69 1022.3
20260507141025 0 35 1.6 0.0 0.00 0.00 0.00 70 1022.6
20260507140022 -1 52 1.6 0.0 0.00 0.00 0.00 69 1022.7
20260507135038 -1 80 1.6 0.0 0.00 0.00 0.00 71 1022.6
20260507134029 0 80 3.2 0.0 0.00 0.00 0.00 70 1022.5
20260507133024 -1 309 1.6 0.0 0.00 0.00 0.00 70 1022.7
20260507132020 -1 87 0.0 0.0 0.00 0.00 0.00 70 1022.2
20260507131033 -1 87 1.6 0.0 0.00 0.00 0.00 72 1022.0
20260507130030 -2 87 1.6 0.0 0.00 0.00 0.00 71 1022.1
20260507124037 -2 132 4.8 0.0 0.00 0.00 0.00 71 1022.0
20260507123029 -2 82 3.2 0.0 0.00 0.00 0.00 72 1021.9
20260507120022 -4 241 0.0 0.0 0.00 0.00 0.00 78 1021.7
20260507115033 -4 242 1.6 0.0 0.00 0.00 0.00 78 1021.7
20260507114026 -5 242 0.0 0.0 0.00 0.00 0.00 79 1021.5
20260507112022 -4 241 0.0 0.0 0.00 0.00 0.00 78 1021.8
20260507110031 -4 241 0.0 0.0 0.00 0.00 0.00 77 1021.6
20260507105023 -4 242 0.0 0.0 0.00 0.00 0.00 76 1021.7
20260507104020 -4 242 0.0 0.0 0.00 0.00 0.00 77 1021.5
20260507103037 -4 241 0.0 0.0 0.00 0.00 0.00 76 1021.8
20260507102034 -4 241 0.0 0.0 0.00 0.00 0.00 77 1021.7
20260507101027 -4 242 0.0 0.0 0.00 0.00 0.00 76 1021.6